When you browse on this site, cookies collect data to enhance your experience and personalize the content and advertising you see.
Visit our Privacy Policy to learn more. By continuing to use the site, you agree to this use of cookies and data.
  • In Romania
  • List of Countries
  • For 7 days
  • Water Temperature
  • Satellite Maps
  • Weather Map
  • Weather Widgets
  • user-avatar
    Login

    Hourly Weather Aberdeen

    Today, 20 January, Sunday

    Time Temperature Precipitation Wind Pressure Humidity
    00:00 +2°C° 0 mm 1 mps 751 mmHg 91%
    01:00 +2°C° 0 mm 1 mps 751 mmHg 91%
    02:00 +2°C° 0 mm 1 mps 751 mmHg 90%
    03:00 +2°C° 0 mm 1 mps 751 mmHg 90%
    04:00 +2°C° 0 mm 1 mps 751 mmHg 90%
    05:00 -1°C° 0 mm 2 mps 751 mmHg 90%
    06:00 -1°C° 0 mm 2 mps 752 mmHg 90%
    07:00 -1°C° 0 mm 2 mps 752 mmHg 89%
    08:00 -1°C° 0 mm 3 mps 752 mmHg 88%
    09:00 -1°C° 0 mm 3 mps 753 mmHg 87%
    10:00 0°C° 0.2 mm 3 mps 753 mmHg 84%
    11:00 +1°C° 0.2 mm 4 mps 754 mmHg 82%
    12:00 +3°C° 0.2 mm 4 mps 754 mmHg 79%
    13:00 +3°C° 0 mm 4 mps 755 mmHg 77%
    14:00 +3°C° 0 mm 4 mps 755 mmHg 75%
    15:00 +3°C° 0 mm 4 mps 756 mmHg 73%
    16:00 +2°C° 0 mm 3 mps 757 mmHg 75%
    17:00 +1°C° 0 mm 3 mps 757 mmHg 77%
    18:00 0°C° 0 mm 3 mps 758 mmHg 80%
    19:00 0°C° 0 mm 3 mps 758 mmHg 80%
    20:00 -1°C° 0 mm 3 mps 759 mmHg 80%
    21:00 -1°C° 0 mm 3 mps 760 mmHg 81%
    22:00 -1°C° 0 mm 3 mps 760 mmHg 80%
    23:00 -1°C° 0 mm 3 mps 760 mmHg 79%

    Tomorrow, 21 January, Monday

    Time Temperature Precipitation Wind Pressure Humidity
    00:00 -1°C° 0 mm 3 mps 760 mmHg 79%
    01:00 -1°C° 0 mm 3 mps 760 mmHg 79%
    02:00 -1°C° 0 mm 3 mps 759 mmHg 80%
    03:00 -1°C° 0 mm 3 mps 759 mmHg 80%
    04:00 -1°C° 0 mm 3 mps 758 mmHg 82%
    05:00 -1°C° 0 mm 3 mps 758 mmHg 84%
    06:00 -1°C° 0 mm 3 mps 757 mmHg 86%
    07:00 -1°C° 0 mm 3 mps 757 mmHg 87%
    08:00 -2°C° 0 mm 4 mps 756 mmHg 88%
    09:00 -1°C° 0 mm 4 mps 755 mmHg 88%
    10:00 -1°C° 0 mm 5 mps 754 mmHg 84%
    11:00 -1°C° 0 mm 6 mps 754 mmHg 81%
    12:00 0°C° 0 mm 7 mps 753 mmHg 77%
    13:00 0°C° 0 mm 7 mps 751 mmHg 76%
    14:00 0°C° 0 mm 7 mps 749 mmHg 75%
    15:00 +1°C° 0 mm 6 mps 747 mmHg 74%
    16:00 0°C° 0.3 mm 7 mps 746 mmHg 76%
    17:00 0°C° 0.3 mm 7 mps 745 mmHg 79%
    18:00 0°C° 0.3 mm 7 mps 743 mmHg 81%
    19:00 0°C° 0.8 mm 7 mps 742 mmHg 84%
    20:00 0°C° 0.8 mm 7 mps 741 mmHg 87%
    21:00 0°C° 0.8 mm 7 mps 740 mmHg 90%
    22:00 +1°C° 0.1 mm 6 mps 739 mmHg 88%
    23:00 0°C° 0.1 mm 5 mps 738 mmHg 86%

    Day after tomorrow, 22 January, Tuesday

    Time Temperature Precipitation Wind Pressure Humidity
    00:00 -1°C° 0.1 mm 5 mps 738 mmHg 84%
    01:00 -1°C° 0.1 mm 5 mps 737 mmHg 83%
    02:00 -1°C° 0.1 mm 5 mps 737 mmHg 83%
    03:00 -1°C° 0.1 mm 5 mps 737 mmHg 82%
    04:00 -1°C° 0 mm 5 mps 737 mmHg 81%
    05:00 -2°C° 0 mm 5 mps 736 mmHg 81%
    06:00 -3°C° 0 mm 6 mps 736 mmHg 80%
    07:00 -3°C° 0 mm 6 mps 737 mmHg 79%
    08:00 -3°C° 0 mm 6 mps 737 mmHg 78%
    09:00 -3°C° 0 mm 6 mps 737 mmHg 77%
    10:00 -2°C° 0 mm 6 mps 738 mmHg 74%
    11:00 -1°C° 0 mm 6 mps 738 mmHg 71%
    12:00 -1°C° 0 mm 6 mps 739 mmHg 69%
    13:00 -1°C° 0 mm 6 mps 739 mmHg 70%
    14:00 -1°C° 0 mm 6 mps 739 mmHg 70%
    15:00 -1°C° 0 mm 6 mps 740 mmHg 71%
    16:00 -1°C° 0 mm 5 mps 740 mmHg 73%
    17:00 -2°C° 0 mm 5 mps 740 mmHg 75%
    18:00 -2°C° 0 mm 5 mps 741 mmHg 77%
    19:00 -4°C° 0 mm 5 mps 741 mmHg 78%
    20:00 -4°C° 0 mm 5 mps 742 mmHg 78%
    21:00 -4°C° 0 mm 4 mps 742 mmHg 79%
    22:00 -4°C° 0 mm 4 mps 742 mmHg 79%
    23:00 -4°C° 0 mm 4 mps 742 mmHg 79%

    23 January, Wednesday

    Time Temperature Precipitation Wind Pressure Humidity
    00:00 -4°C° 0 mm 4 mps 743 mmHg 78%
    01:00 -4°C° 0 mm 4 mps 743 mmHg 78%
    02:00 -4°C° 0 mm 4 mps 743 mmHg 77%
    03:00 -3°C° 0 mm 4 mps 743 mmHg 76%
    04:00 -3°C° 0 mm 4 mps 744 mmHg 77%
    05:00 -3°C° 0 mm 4 mps 744 mmHg 78%
    06:00 -3°C° 0 mm 4 mps 744 mmHg 78%
    07:00 -3°C° 0 mm 4 mps 744 mmHg 79%
    08:00 -3°C° 0 mm 4 mps 745 mmHg 79%
    09:00 -3°C° 0 mm 4 mps 745 mmHg 80%
    10:00 -2°C° 0 mm 4 mps 745 mmHg 77%
    11:00 -1°C° 0 mm 5 mps 746 mmHg 74%
    12:00 +1°C° 0 mm 5 mps 746 mmHg 72%
    13:00 +1°C° 0 mm 5 mps 746 mmHg 73%
    14:00 0°C° 0 mm 4 mps 746 mmHg 75%
    15:00 0°C° 0 mm 4 mps 746 mmHg 77%
    16:00 0°C° 0 mm 4 mps 747 mmHg 80%
    17:00 -1°C° 0 mm 4 mps 747 mmHg 82%
    18:00 -2°C° 0 mm 4 mps 747 mmHg 85%
    19:00 -2°C° 0 mm 4 mps 747 mmHg 84%
    20:00 -2°C° 0 mm 4 mps 748 mmHg 84%
    21:00 -2°C° 0 mm 4 mps 748 mmHg 83%
    22:00 -2°C° 0 mm 4 mps 748 mmHg 83%
    23:00 -2°C° 0 mm 4 mps 748 mmHg 84%

    24 January, Thursday

    Time Temperature Precipitation Wind Pressure Humidity
    00:00 -2°C° 0 mm 4 mps 748 mmHg 84%
    01:00 -2°C° 0 mm 4 mps 748 mmHg 85%
    02:00 -2°C° 0 mm 4 mps 748 mmHg 85%
    03:00 -2°C° 0 mm 4 mps 748 mmHg 85%
    04:00 -2°C° 0 mm 4 mps 748 mmHg 85%
    05:00 -1°C° 0 mm 3 mps 748 mmHg 86%
    06:00 -1°C° 0 mm 3 mps 749 mmHg 86%
    07:00 -1°C° 0 mm 3 mps 749 mmHg 85%
    08:00 -1°C° 0 mm 3 mps 749 mmHg 84%
    09:00 -1°C° 0 mm 3 mps 750 mmHg 84%
    10:00 0°C° 0 mm 3 mps 750 mmHg 81%
    11:00 +1°C° 0 mm 3 mps 750 mmHg 79%
    12:00 +3°C° 0 mm 2 mps 750 mmHg 77%
    13:00 +3°C° 0 mm 2 mps 750 mmHg 78%
    14:00 +3°C° 0 mm 2 mps 750 mmHg 79%
    15:00 +3°C° 0 mm 2 mps 750 mmHg 80%
    16:00 +2°C° 0 mm 2 mps 751 mmHg 81%
    17:00 +2°C° 0 mm 2 mps 751 mmHg 83%
    18:00 +1°C° 0 mm 2 mps 751 mmHg 84%
    19:00 +1°C° 0 mm 2 mps 752 mmHg 84%
    20:00 +1°C° 0 mm 2 mps 752 mmHg 83%
    21:00 +1°C° 0 mm 2 mps 752 mmHg 83%
    22:00 +2°C° 0.1 mm 2 mps 752 mmHg 85%
    23:00 +1°C° 0.1 mm 3 mps 752 mmHg 88%

    25 January, Friday

    Time Temperature Precipitation Wind Pressure Humidity
    00:00 +2°C° 0.1 mm 3 mps 752 mmHg 90%
    01:00 +2°C° 0 mm 3 mps 752 mmHg 91%
    02:00 +2°C° 0 mm 3 mps 752 mmHg 92%
    03:00 +1°C° 0 mm 3 mps 752 mmHg 93%
    04:00 +2°C° 0 mm 3 mps 752 mmHg 94%
    05:00 +1°C° 0 mm 4 mps 751 mmHg 94%
    06:00 +3°C° 0 mm 4 mps 751 mmHg 94%
    07:00 +3°C° 0 mm 4 mps 751 mmHg 94%
    08:00 +3°C° 0 mm 4 mps 751 mmHg 94%
    09:00 +2°C° 0 mm 5 mps 751 mmHg 94%
    10:00 +3°C° 0 mm 5 mps 751 mmHg 93%
    11:00 +3°C° 0 mm 5 mps 751 mmHg 92%
    12:00 +4°C° 0 mm 6 mps 751 mmHg 92%
    13:00 +4°C° 0 mm 6 mps 751 mmHg 91%
    14:00 +4°C° 0 mm 7 mps 750 mmHg 91%
    15:00 +5°C° 0 mm 7 mps 749 mmHg 90%
    16:00 +5°C° 0.1 mm 7 mps 749 mmHg 91%
    17:00 +5°C° 0.1 mm 8 mps 749 mmHg 91%
    18:00 +5°C° 0.1 mm 8 mps 749 mmHg 92%
    19:00 +4°C° 0 mm 7 mps 749 mmHg 90%
    20:00 +4°C° 0 mm 6 mps 749 mmHg 89%
    21:00 +3°C° 0 mm 5 mps 749 mmHg 87%
    22:00 +2°C° 0 mm 5 mps 749 mmHg 87%
    23:00 +1°C° 0 mm 4 mps 749 mmHg 88%
    Show more